When you browse on this site, cookies collect data to enhance your experience and personalize the content and advertising you see.
Visit our Privacy Policy to learn more. By continuing to use the site, you agree to this use of cookies and data.
EN

Hourly Weather Sotino

Today, 21 September, Monday

Time Temperature Precipitation Wind Pressure Humidity
00:00 +7°C° 0 mm 3 mps 745 mmHg 82%
01:00 +7°C° 0 mm 3 mps 745 mmHg 83%
02:00 +7°C° 0 mm 3 mps 745 mmHg 86%
03:00 +6°C° 0 mm 4 mps 744 mmHg 85%
04:00 +6°C° 0 mm 4 mps 744 mmHg 85%
05:00 +7°C° 0 mm 4 mps 744 mmHg 84%
06:00 +7°C° 0 mm 4 mps 744 mmHg 83%
07:00 +8°C° 0 mm 4 mps 744 mmHg 82%
08:00 +9°C° 0 mm 5 mps 744 mmHg 81%
09:00 +10°C° 0 mm 5 mps 743 mmHg 79%
10:00 +10°C° 0 mm 5 mps 743 mmHg 76%
11:00 +12°C° 0 mm 5 mps 743 mmHg 73%
12:00 +13°C° 0 mm 5 mps 743 mmHg 71%
13:00 +14°C° 0 mm 5 mps 743 mmHg 70%
14:00 +14°C° 0 mm 5 mps 743 mmHg 68%
15:00 +14°C° 0 mm 4 mps 743 mmHg 72%
16:00 +13°C° 0 mm 4 mps 743 mmHg 76%
17:00 +12°C° 0 mm 3 mps 743 mmHg 79%
18:00 +12°C° 0 mm 3 mps 743 mmHg 82%
19:00 +11°C° 0 mm 3 mps 743 mmHg 84%
20:00 +12°C° 0 mm 2 mps 743 mmHg 86%
21:00 +11°C° 0 mm 3 mps 743 mmHg 89%
22:00 +10°C° 0 mm 3 mps 743 mmHg 92%
23:00 +10°C° 0 mm 3 mps 742 mmHg 95%

Tomorrow, 22 September, Tuesday

Time Temperature Precipitation Wind Pressure Humidity
00:00 +10°C° 0 mm 3 mps 742 mmHg 94%
01:00 +10°C° 0 mm 3 mps 742 mmHg 93%
02:00 +11°C° 0 mm 4 mps 742 mmHg 93%
03:00 +11°C° 0 mm 4 mps 742 mmHg 92%
04:00 +11°C° 0 mm 4 mps 741 mmHg 92%
05:00 +10°C° 0 mm 5 mps 741 mmHg 92%
06:00 +10°C° 0 mm 5 mps 741 mmHg 87%
07:00 +12°C° 0 mm 5 mps 741 mmHg 82%
08:00 +13°C° 0 mm 5 mps 741 mmHg 77%
09:00 +14°C° 0 mm 5 mps 741 mmHg 72%
10:00 +15°C° 0 mm 5 mps 741 mmHg 66%
11:00 +16°C° 0 mm 6 mps 741 mmHg 61%
12:00 +17°C° 0 mm 6 mps 741 mmHg 58%
13:00 +17°C° 0 mm 6 mps 741 mmHg 56%
14:00 +19°C° 0 mm 6 mps 741 mmHg 53%
15:00 +17°C° 0 mm 5 mps 741 mmHg 58%
16:00 +17°C° 0 mm 4 mps 741 mmHg 62%
17:00 +15°C° 0 mm 4 mps 741 mmHg 67%
18:00 +14°C° 0 mm 3 mps 742 mmHg 70%
19:00 +13°C° 0 mm 3 mps 742 mmHg 73%
20:00 +12°C° 0 mm 3 mps 742 mmHg 76%
21:00 +12°C° 0 mm 3 mps 742 mmHg 78%
22:00 +11°C° 0 mm 3 mps 742 mmHg 81%
23:00 +11°C° 0 mm 3 mps 743 mmHg 83%

Day after tomorrow, 23 September, Wednesday

Time Temperature Precipitation Wind Pressure Humidity
00:00 +10°C° 0 mm 3 mps 743 mmHg 87%
01:00 +9°C° 0 mm 2 mps 743 mmHg 90%
02:00 +9°C° 0 mm 2 mps 743 mmHg 94%
03:00 +8°C° 0 mm 2 mps 743 mmHg 94%
04:00 +8°C° 0 mm 2 mps 743 mmHg 95%
05:00 +8°C° 0 mm 2 mps 744 mmHg 95%
06:00 +9°C° 0 mm 2 mps 744 mmHg 91%
07:00 +12°C° 0 mm 2 mps 744 mmHg 86%
08:00 +13°C° 0 mm 2 mps 744 mmHg 82%
09:00 +15°C° 0 mm 2 mps 744 mmHg 76%
10:00 +17°C° 0 mm 2 mps 744 mmHg 70%
11:00 +19°C° 0 mm 2 mps 744 mmHg 64%
12:00 +19°C° 0 mm 3 mps 744 mmHg 63%
13:00 +20°C° 0 mm 3 mps 744 mmHg 62%
14:00 +21°C° 0 mm 3 mps 744 mmHg 60%
15:00 +19°C° 0 mm 3 mps 743 mmHg 67%
16:00 +18°C° 0 mm 2 mps 743 mmHg 74%
17:00 +17°C° 0 mm 2 mps 743 mmHg 81%
18:00 +16°C° 0 mm 2 mps 743 mmHg 85%
19:00 +15°C° 0 mm 2 mps 743 mmHg 90%
20:00 +14°C° 0 mm 2 mps 743 mmHg 94%
21:00 +14°C° 0 mm 2 mps 743 mmHg 94%
22:00 +13°C° 0 mm 2 mps 743 mmHg 94%
23:00 +13°C° 0 mm 2 mps 743 mmHg 93%

24 September, Thursday

Time Temperature Precipitation Wind Pressure Humidity
00:00 +12°C° 0 mm 2 mps 743 mmHg 93%
01:00 +12°C° 0 mm 2 mps 744 mmHg 92%
02:00 +10°C° 0 mm 2 mps 744 mmHg 92%
03:00 +10°C° 0 mm 2 mps 744 mmHg 91%
04:00 +10°C° 0 mm 2 mps 744 mmHg 90%
05:00 +9°C° 0 mm 2 mps 744 mmHg 90%
06:00 +12°C° 0 mm 2 mps 744 mmHg 83%
07:00 +12°C° 0 mm 3 mps 744 mmHg 77%
08:00 +13°C° 0 mm 3 mps 744 mmHg 70%
09:00 +16°C° 0 mm 3 mps 745 mmHg 65%
10:00 +17°C° 0 mm 3 mps 745 mmHg 60%
11:00 +19°C° 0 mm 3 mps 745 mmHg 55%
12:00 +19°C° 0 mm 3 mps 745 mmHg 53%
13:00 +20°C° 0 mm 3 mps 745 mmHg 52%
14:00 +20°C° 0 mm 3 mps 745 mmHg 50%
15:00 +19°C° 0 mm 2 mps 745 mmHg 58%
16:00 +17°C° 0 mm 2 mps 745 mmHg 65%
17:00 +16°C° 0 mm 2 mps 745 mmHg 73%
18:00 +15°C° 0 mm 2 mps 745 mmHg 77%
19:00 +14°C° 0 mm 2 mps 745 mmHg 80%
20:00 +13°C° 0 mm 2 mps 745 mmHg 84%
21:00 +12°C° 0 mm 2 mps 745 mmHg 86%
22:00 +12°C° 0 mm 2 mps 745 mmHg 88%
23:00 +10°C° 0 mm 2 mps 746 mmHg 89%

25 September, Friday

Time Temperature Precipitation Wind Pressure Humidity
00:00 +10°C° 0 mm 2 mps 746 mmHg 90%
01:00 +10°C° 0 mm 2 mps 746 mmHg 90%
02:00 +10°C° 0 mm 2 mps 746 mmHg 90%
03:00 +9°C° 0 mm 2 mps 746 mmHg 90%
04:00 +9°C° 0 mm 2 mps 746 mmHg 91%
05:00 +9°C° 0 mm 2 mps 746 mmHg 91%
06:00 +10°C° 0 mm 2 mps 746 mmHg 86%
07:00 +12°C° 0 mm 2 mps 746 mmHg 80%
08:00 +13°C° 0 mm 2 mps 746 mmHg 75%
09:00 +15°C° 0 mm 2 mps 746 mmHg 70%
10:00 +17°C° 0 mm 2 mps 747 mmHg 65%
11:00 +19°C° 0 mm 3 mps 747 mmHg 60%
12:00 +19°C° 0 mm 3 mps 747 mmHg 58%
13:00 +20°C° 0 mm 3 mps 747 mmHg 55%
14:00 +21°C° 0 mm 3 mps 747 mmHg 53%
15:00 +19°C° 0 mm 3 mps 746 mmHg 60%
16:00 +18°C° 0 mm 2 mps 746 mmHg 68%
17:00 +16°C° 0 mm 2 mps 746 mmHg 75%
18:00 +15°C° 0 mm 2 mps 746 mmHg 78%
19:00 +14°C° 0 mm 2 mps 746 mmHg 81%
20:00 +13°C° 0 mm 2 mps 746 mmHg 85%
21:00 +13°C° 0 mm 2 mps 746 mmHg 86%
22:00 +12°C° 0 mm 2 mps 746 mmHg 87%
23:00 +12°C° 0 mm 2 mps 746 mmHg 88%

26 September, Saturday

Time Temperature Precipitation Wind Pressure Humidity
00:00 +10°C° 0 mm 2 mps 746 mmHg 89%
01:00 +10°C° 0 mm 2 mps 746 mmHg 90%
02:00 +10°C° 0 mm 2 mps 747 mmHg 91%
03:00 +10°C° 0 mm 2 mps 747 mmHg 92%
04:00 +9°C° 0 mm 2 mps 747 mmHg 93%
05:00 +9°C° 0 mm 2 mps 747 mmHg 94%
06:00 +12°C° 0 mm 2 mps 747 mmHg 88%
07:00 +12°C° 0 mm 3 mps 747 mmHg 82%
08:00 +13°C° 0 mm 3 mps 747 mmHg 76%
09:00 +16°C° 0 mm 3 mps 747 mmHg 70%
10:00 +18°C° 0 mm 3 mps 747 mmHg 65%
11:00 +19°C° 0 mm 3 mps 747 mmHg 59%
12:00 +20°C° 0 mm 4 mps 747 mmHg 57%
13:00 +21°C° 0 mm 4 mps 747 mmHg 55%
14:00 +22°C° 0 mm 4 mps 747 mmHg 52%
15:00 +20°C° 0 mm 4 mps 747 mmHg 59%
16:00 +19°C° 0 mm 3 mps 747 mmHg 65%
17:00 +18°C° 0 mm 3 mps 747 mmHg 71%
18:00 +17°C° 0 mm 3 mps 748 mmHg 73%
19:00 +16°C° 0 mm 3 mps 748 mmHg 75%
20:00 +14°C° 0 mm 3 mps 748 mmHg 78%
21:00 +14°C° 0 mm 3 mps 748 mmHg 79%
22:00 +13°C° 0 mm 3 mps 748 mmHg 80%
23:00 +13°C° 0 mm 3 mps 749 mmHg 81%
Show more